Redding, CA

7:34 AM PST on February 20, 2017 (GMT -0800)
Redding Municipal

Weather History for KRDD - January, 2014

Change the Weather History Date:

Wednesday, January 15, 2014

  Actual Average Record
Temperature  
Mean Temperature 65 °F -  
Max Temperature 80 °F 55 °F 80 °F (2014)
Min Temperature 50 °F 36 °F 25 °F (2012)
Degree Days  
Heating Degree Days 0    
Cooling Degree Days 0    
Growing Degree Days 14 (Base 50)    
Moisture  
Dew Point 19 °F    
Average Humidity 18    
Maximum Humidity 26    
Minimum Humidity 9    
Precipitation  
Precipitation 0.00 in 0.20 in 0.93 in (2000)
Month to date precipitation 0.08 3.00  
Year to date precipitation 0.08 3.00  
Since 1 July precipitation 3.58  
Sea Level Pressure  
Sea Level Pressure 30.33 in    
Wind  
Wind Speed 10 mph (NNW)    
Max Wind Speed 18 mph    
Max Gust Speed 25 mph    
Visibility 10 miles    
Events      
T = Trace of Precipitation, MM = Missing Value Source: NWS Daily Summary

Daily Weather History Graph

Daily Weather History Graph

Search for Another Location

Airport or City:

Trip Planner

Search our weather history database for the weather conditions in past years. The results will help you decide how hot, cold, wet, or windy it might be!

Date:

Astronomy

Jan. 15, 2014 Rise Set
Actual Time 7:30 AM PST 5:07 PM PST
Civil Twilight 7:00 AM PST 5:37 PM PST
Nautical Twilight 6:26 AM PST 6:10 PM PST
Astronomical Twilight 5:54 AM PST 6:43 PM PST
Moon 5:10 PM PST (1/15) 6:49 AM PST (1/15)
Length of Visible Light 10h 36m
Length of Day
9h 36m
Full, 100% of the Moon is Illuminated
Jan 15
Full
Jan 15
Full
Jan 23
Last Quarter
Jan 30
New
Feb 6
First Quarter

Hourly Weather History & Observations

Time (PST) Temp. Dew Point Humidity Pressure Visibility Wind Dir Wind Speed Gust Speed Precip Events Conditions
12:53 AM 57.9 °F 19.0 °F 22% 30.38 in 10.0 mi North 11.5 mph - N/A   Clear
1:53 AM 60.1 °F 17.1 °F 19% 30.37 in 10.0 mi North 15.0 mph 24.2 mph N/A   Clear
2:53 AM 59.0 °F 17.1 °F 20% 30.38 in 10.0 mi North 11.5 mph - N/A   Clear
3:53 AM 60.1 °F 16.0 °F 18% 30.37 in 10.0 mi North 12.7 mph - N/A   Clear
4:53 AM 57.9 °F 16.0 °F 19% 30.37 in 10.0 mi North 6.9 mph - N/A   Clear
5:53 AM 59.0 °F 16.0 °F 19% 30.38 in 10.0 mi North 10.4 mph - N/A   Clear
6:53 AM 57.9 °F 16.0 °F 19% 30.39 in 10.0 mi North 9.2 mph - N/A   Clear
7:53 AM 53.1 °F 19.0 °F 26% 30.40 in 10.0 mi NW 4.6 mph - N/A   Clear
8:53 AM 61.0 °F 17.1 °F 18% 30.40 in 10.0 mi NNW 8.1 mph - N/A   Clear
9:53 AM 64.9 °F 17.1 °F 16% 30.40 in 10.0 mi North 12.7 mph 18.4 mph N/A   Clear
10:53 AM 69.1 °F 18.0 °F 14% 30.40 in 10.0 mi Variable 6.9 mph - N/A   Clear
11:53 AM 73.0 °F 18.0 °F 12% 30.35 in 10.0 mi North 11.5 mph - N/A   Clear
12:50 PM 73.4 °F 17.6 °F 12% - 10.0 mi North 11.5 mph - N/A   Clear
12:53 PM 75.9 °F 19.0 °F 12% 30.31 in 10.0 mi North 8.1 mph - N/A   Clear
1:53 PM 78.1 °F 19.0 °F 11% 30.28 in 10.0 mi North 6.9 mph - N/A   Clear
2:53 PM 79.0 °F 16.0 °F 9% 30.26 in 10.0 mi North 18.4 mph - N/A   Clear
3:53 PM 79.0 °F 19.0 °F 11% 30.25 in 10.0 mi North 6.9 mph - N/A   Clear
4:53 PM 75.0 °F 19.9 °F 13% 30.24 in 10.0 mi North 5.8 mph - N/A   Clear
5:53 PM 66.0 °F 21.9 °F 19% 30.25 in 10.0 mi NNW 4.6 mph - N/A   Clear
6:53 PM 66.0 °F 21.9 °F 19% 30.26 in 10.0 mi North 5.8 mph - N/A   Clear
7:53 PM 62.1 °F 21.9 °F 21% 30.27 in 10.0 mi NNW 6.9 mph - N/A   Clear
8:53 PM 57.9 °F 21.9 °F 25% 30.28 in 10.0 mi NNW 5.8 mph - N/A   Clear
9:53 PM 55.0 °F 21.9 °F 28% 30.28 in 10.0 mi NW 5.8 mph - N/A   Clear
10:53 PM 52.0 °F 23.0 °F 32% 30.28 in 10.0 mi NNW 5.8 mph - N/A   Clear
11:53 PM 52.0 °F 21.0 °F 30% 30.28 in 10.0 mi NW 5.8 mph - N/A   Clear